Theta_e
316 315 315 313 314 313 311 313 315 313 315 317 318 316 317 317 318 319 318 317 318 319 320 320 320 320 320 320 319 317 319 323 327 329 332 333 335 335 335 335 335 332 331 332
316 317 312 311 312 314 314 310 313 312 315 316 314 313 314 315 315 316 317 318 317 317 317 317 317 317 317 318 317 316 317 319 322 326 329 331 332 332 333 333 334 334 331 332
315 313 312 310 312 313 315 314 309 309 315 316 315 313 314 314 314 314 315 316 316 316 316 316 316 315 316 316 316 318 318 319 321 324 328 329 330 331 332 332 332 333 332 331
315 313 312 312 312 312 313 313 312 310 313 310 314 309 311 311 311 314 315 315 315 316 316 316 316 315 315 317 318 318 318 318 319 322 325 327 328 329 329 330 332 333 331 330
316 314 313 314 313 311 312 310 312 313 314 313 310 311 310 310 310 311 313 314 315 315 316 316 318 317 316 315 318 320 320 319 318 318 321 325 328 328 328 330 331 331 330 330
314 313 313 313 313 312 311 312 314 314 315 316 312 311 310 311 311 311 312 313 314 316 317 317 314 313 315 316 320 326 326 325 325 323 323 325 327 329 329 330 330 329 329 329
314 314 313 312 313 313 314 315 319 319 319 319 311 312 312 311 311 311 311 313 315 317 316 314 313 312 312 313 314 315 316 314 319 322 323 325 327 328 328 329 329 330 329 329
316 317 315 312 313 315 315 315 316 316 316 314 312 313 311 312 312 312 311 311 314 315 315 311 309 309 308 308 309 309 310 307 306 309 312 317 322 322 320 320 321 321 320 318
316 314 314 313 312 312 315 316 313 313 313 312 311 312 312 313 312 312 312 312 313 315 311 308 306 305 304 303 303 303 303 303 302 301 301 302 303 303 302 303 303 300 300 300
313 314 312 313 313 312 314 314 315 315 314 313 309 310 310 313 312 312 312 312 314 312 309 306 304 301 300 299 298 298 298 298 298 299 299 298 297 297 297 297 296 296 296 297
313 314 312 314 315 314 313 315 315 314 313 313 312 311 310 311 311 312 313 312 314 311 308 304 301 299 297 296 295 295 294 294 295 295 296 296 295 294 293 293 293 293 293 293
313 313 315 314 313 313 313 313 315 316 316 314 313 312 312 312 312 310 311 313 314 309 306 302 300 298 297 295 293 293 292 292 292 293 293 293 291 290 290 290 289 290 290 290
313 314 316 315 313 312 315 314 314 315 314 316 318 314 311 312 312 313 313 313 312 308 304 301 298 297 296 294 292 290 290 289 289 290 290 288 287 287 287 287 287 287 288 287
312 314 315 314 313 312 314 315 315 315 318 315 315 314 313 311 311 311 313 312 309 306 302 299 298 296 293 292 289 288 287 287 287 287 286 285 284 284 284 284 284 284 285 285
311 313 312 312 312 310 312 313 314 317 316 316 315 314 313 313 312 312 312 310 307 304 301 299 297 294 291 289 287 286 285 285 285 284 283 282 283 282 283 283 282 282 283 283
311 313 312 313 312 312 312 311 312 314 316 316 315 314 313 312 312 312 311 309 306 303 301 298 295 291 289 287 285 284 284 283 283 283 282 282 282 282 281 281 281 281 282 282
310 312 314 314 312 312 313 312 311 312 314 315 316 315 313 313 312 312 311 307 305 303 301 297 292 289 287 284 283 283 282 282 282 282 281 280 280 280 280 280 280 280 280 281
310 311 312 313 312 315 312 311 311 311 311 312 313 313 313 313 313 312 310 307 305 302 298 293 290 286 283 282 282 281 281 281 281 280 280 279 279 279 279 279 279 279 279 279
308 310 311 311 312 309 309 309 310 311 311 310 311 312 312 312 305 305 306 307 305 301 295 290 286 284 281 281 281 280 280 280 279 279 278 277 277 277 277 278 277 277 277 277
306 309 312 314 315 315 311 310 309 310 312 310 310 310 310 309 308 310 298 302 299 293 288 285 282 281 280 279 279 279 279 279 278 276 275 275 275 275 275 275 275 275 276 276
307 307 310 312 313 311 307 305 307 311 310 309 309 309 309 309 308 304 296 292 288 286 284 282 280 280 278 278 279 278 278 276 275 273 273 273 273 273 273 274 273 274 274 274
308 308 309 308 311 312 306 303 308 306 299 295 299 303 307 307 294 292 290 287 285 283 281 280 279 277 277 277 278 277 274 273 272 271 271 271 271 271 272 272 272 272 273 273
308 307 310 310 310 298 302 299 289 289 292 291 292 292 294 290 289 288 286 284 282 280 280 279 277 276 275 274 275 274 271 270 270 269 269 269 270 270 270 271 271 271 272 272
305 301 307 308 302 295 291 286 284 285 287 286 287 288 288 287 285 284 283 282 280 278 278 277 276 274 272 271 270 270 269 268 268 268 268 269 269 268 269 269 270 270 270 270
303 301 304 303 298 290 290 287 286 283 283 284 284 285 285 284 283 281 281 279 277 276 275 275 274 272 270 269 268 267 266 267 267 267 267 267 267 267 268 268 268 268 269 269
297 302 303 309 293 297 294 288 284 283 282 282 282 282 282 282 281 279 278 277 275 274 273 272 271 270 268 267 266 265 265 265 264 266 266 266 265 266 266 267 267 267 267 267
Wind_Speed
14 11 16 19 19 17 7 14 15 12 7 7 17 21 20 18 18 17 17 17 15 15 15 18 16 15 18 19 19 18 17 18 17 17 19 19 22 22 23 24 24 27 22 22
11 20 16 15 16 18 15 13 16 8 3 7 14 21 19 19 20 21 21 19 20 19 18 21 22 21 21 21 20 18 18 18 19 19 18 20 17 19 21 21 22 25 24 24
20 2 22 16 16 19 20 18 14 11 1 11 15 22 23 19 25 23 22 21 19 20 20 18 19 21 21 20 17 15 15 17 17 19 19 18 17 16 15 18 21 24 24 23
17 22 13 14 19 18 19 17 15 13 7 8 9 11 14 7 10 13 15 19 20 20 20 18 15 14 14 14 10 13 13 15 17 18 20 20 20 19 17 16 16 16 18 21
12 10 21 20 17 18 12 15 13 16 14 14 20 9 7 16 17 13 13 13 16 16 15 12 7 3 4 5 8 9 11 12 14 15 18 18 19 17 14 13 11 12 13 15
23 9 15 19 16 17 6 8 7 9 11 13 21 17 17 17 15 12 12 14 13 13 9 5 3 2 1 2 3 2 1 1 4 8 12 15 15 14 13 10 10 11 12 11
16 16 8 13 15 14 17 15 6 6 7 11 8 15 22 7 5 6 11 13 10 8 8 8 6 3 3 5 6 6 7 8 4 5 5 3 6 8 7 3 3 4 5 6
15 9 21 16 17 10 23 20 8 9 9 11 15 13 10 5 13 9 8 10 10 7 7 7 6 7 7 6 8 9 10 12 12 11 11 9 7 7 8 7 7 6 4 3
14 17 18 17 16 17 19 21 18 11 2 4 10 16 11 8 5 12 13 14 13 12 9 9 9 9 10 9 9 10 12 13 14 15 17 16 16 15 14 12 11 11 9 8
14 10 14 21 16 19 14 15 12 11 7 10 12 16 11 9 13 16 16 14 8 9 11 11 11 11 11 11 11 12 13 13 13 14 14 15 16 16 15 14 14 13 11 11
19 12 6 16 21 21 14 12 10 9 10 8 11 11 14 19 17 15 12 15 13 13 12 11 11 12 11 10 11 11 11 12 13 13 13 13 14 14 14 13 13 13 12 13
25 10 12 18 17 21 23 23 24 8 14 13 15 15 6 5 4 6 13 13 9 14 14 12 14 13 12 11 10 10 10 11 11 10 12 12 11 12 12 12 12 12 14 14
17 9 8 11 12 11 23 22 19 21 13 16 14 14 17 14 7 3 8 7 11 14 14 13 13 13 12 10 9 9 9 9 9 10 10 11 12 13 13 12 12 12 12 14
20 19 16 19 21 12 17 22 25 21 16 19 17 21 23 19 10 13 9 10 12 13 14 13 11 12 11 9 8 7 8 8 8 9 10 11 11 11 12 12 12 13 12 13
25 20 27 28 27 24 20 24 26 27 26 19 26 26 24 22 20 15 13 13 16 17 17 16 13 10 11 9 7 7 7 7 7 8 9 10 10 10 12 13 13 12 13 14
21 16 20 20 27 26 29 20 23 26 29 28 25 22 22 25 18 12 15 16 17 18 18 16 14 14 12 9 7 7 7 7 7 9 10 10 9 10 12 11 13 13 15 16
17 16 13 19 26 27 27 29 28 25 26 26 27 30 28 27 25 15 14 19 19 19 19 16 14 14 12 9 8 7 7 7 9 9 8 8 9 11 12 12 12 13 14 14
13 16 11 13 12 19 15 27 27 29 26 24 28 25 24 27 29 16 11 17 19 17 16 15 16 15 12 10 9 9 8 9 9 8 7 8 10 11 11 11 13 14 15 15
13 14 12 15 20 25 14 23 26 25 31 30 27 27 30 27 3 6 11 18 16 18 16 19 19 17 13 11 10 10 9 10 9 9 7 7 11 12 13 14 14 15 16 15
14 10 7 4 9 7 8 21 16 18 19 22 30 31 28 15 10 18 14 8 13 18 22 23 21 18 15 13 12 11 9 8 11 7 4 9 10 10 9 10 11 12 12 13
6 7 10 12 11 7 13 5 9 12 12 21 21 26 29 17 22 4 15 14 18 20 23 23 21 19 16 14 14 13 10 10 7 2 4 11 8 8 8 10 11 12 14 14
11 9 6 8 7 13 3 9 19 11 3 4 3 8 16 14 9 15 17 16 16 18 23 22 20 17 14 12 12 13 11 6 2 6 7 8 7 8 9 11 12 13 13 14
6 9 4 9 7 2 6 6 5 2 3 3 4 6 9 15 12 16 16 17 15 20 19 17 19 18 14 11 9 12 7 5 3 5 10 7 8 8 10 10 11 12 13 14
3 1 3 1 2 4 5 3 2 1 2 1 1 4 9 14 14 14 13 13 13 18 19 19 18 16 15 11 11 10 6 4 7 8 6 7 9 11 10 10 10 11 13 15
2 3 4 6 5 4 12 11 5 4 5 9 6 5 8 14 15 15 12 12 15 16 18 18 18 16 13 11 10 7 6 6 5 4 5 7 8 9 10 9 10 11 10 13
6 7 6 5 3 3 1 7 13 11 8 8 11 12 10 12 15 14 13 15 16 16 16 15 15 15 13 10 8 5 4 4 4 4 6 7 7 7 8 10 12 9 12 15
Wind_Direction
195 207 209 207 214 232 317 225 236 221 222 263 243 255 253 249 238 243 256 263 255 247 248 247 244 238 238 247 251 250 245 234 231 227 224 226 229 230 233 231 231 234 226 221
188 226 221 224 223 227 227 248 231 249 264 243 273 269 263 254 251 250 250 249 253 258 255 253 252 251 250 252 250 251 244 239 233 229 228 228 231 237 237 235 231 231 227 224
214 208 206 213 216 220 231 231 236 240 284 253 279 276 261 246 242 244 245 250 255 258 260 258 254 248 245 252 255 251 241 239 234 226 227 229 233 242 234 235 234 232 229 227
230 236 203 198 223 214 230 223 242 248 238 257 171 284 276 285 262 218 246 241 242 249 252 257 258 260 258 257 258 252 246 239 235 230 227 229 228 235 241 244 238 233 232 230
212 203 209 216 213 211 238 229 221 231 242 266 250 264 268 229 241 214 227 232 230 236 244 250 253 266 247 274 267 261 255 251 248 243 237 235 237 245 252 247 233 233 233 231
224 192 231 220 215 214 194 168 178 219 229 244 240 234 256 238 242 242 224 233 228 221 224 222 141 185 135 11 21 8 256 18 265 243 237 235 237 238 244 238 240 237 236 234
222 219 216 218 212 203 189 177 182 211 209 241 214 224 245 287 248 290 265 222 225 195 201 179 171 135 66 65 68 72 80 64 77 98 132 147 221 229 228 221 229 224 232 235
213 212 205 195 205 184 201 194 198 217 225 256 205 237 236 229 247 218 206 234 230 183 168 150 140 131 109 81 80 86 85 75 74 79 81 91 106 106 97 91 95 95 89 48
206 226 178 189 201 196 195 219 225 289 291 273 239 240 265 239 223 211 230 221 210 181 159 153 148 129 114 98 86 88 89 84 78 75 77 83 85 85 82 78 78 64 53 33
229 231 200 193 206 220 195 202 205 223 227 231 248 253 250 193 222 230 227 237 228 149 164 161 149 133 122 113 101 92 88 85 82 81 78 74 69 68 64 63 55 49 35 27
233 239 177 170 202 192 206 222 217 221 231 244 260 250 244 249 240 214 231 237 208 171 172 160 147 137 127 115 103 94 87 82 77 77 77 75 69 62 59 53 41 32 22 14
212 228 224 208 211 217 207 208 204 198 212 224 248 250 131 73 23 260 242 240 161 170 168 161 155 148 137 121 107 94 82 76 71 73 74 69 63 58 54 44 33 26 18 7
189 212 218 220 217 234 221 214 221 232 250 232 226 254 249 242 201 237 256 226 160 171 169 164 160 157 144 129 112 94 77 67 62 65 67 58 51 45 40 34 26 21 16 9
201 219 224 227 226 191 205 224 222 225 232 237 239 249 253 253 249 229 219 191 180 178 173 175 169 158 145 134 113 94 74 63 62 63 58 49 42 44 37 25 24 18 19 20
217 225 230 241 252 260 219 217 220 220 227 225 236 237 252 256 254 244 198 188 182 186 185 183 173 163 155 143 126 109 84 64 66 68 60 50 40 37 43 31 22 18 19 26
217 234 231 242 242 242 250 246 236 227 227 234 244 249 248 256 253 224 205 188 189 195 192 184 170 165 161 152 135 115 96 80 75 69 58 48 47 45 43 35 28 19 17 16
220 230 224 229 232 239 243 241 238 238 232 230 233 237 242 250 253 237 193 197 195 194 188 177 173 168 156 146 139 120 107 97 82 75 62 48 45 42 31 28 23 16 11 6
210 222 221 235 239 241 239 239 236 237 239 238 241 246 247 244 252 247 210 194 201 189 170 169 167 157 147 142 135 123 108 91 75 60 59 48 40 38 24 20 14 7 1 355
217 220 240 240 240 248 274 229 223 220 230 231 235 237 243 248 330 265 217 202 195 178 165 157 158 153 148 144 138 126 115 105 96 62 9 31 32 24 17 10 0 355 349 342
220 235 233 220 229 207 197 224 229 232 234 237 230 239 242 224 234 245 165 197 150 140 145 148 147 147 145 145 142 133 121 114 81 58 312 40 20 16 10 357 348 340 335 326
198 227 233 244 245 258 257 133 144 193 224 240 236 238 238 220 224 231 141 134 138 144 147 145 149 148 144 145 143 131 120 86 83 240 18 40 6 357 2 349 343 337 333 331
183 181 205 223 249 248 190 140 191 221 31 336 320 272 253 218 119 137 145 145 145 145 146 150 143 138 133 134 138 126 109 102 47 10 12 33 357 360 360 350 346 340 338 335
224 217 219 209 216 43 163 230 108 105 337 13 328 335 109 127 139 144 147 146 147 146 145 146 139 130 121 118 130 110 85 71 39 15 20 1 360 7 360 350 344 343 343 342
258 110 241 28 183 259 253 244 286 313 129 76 281 155 129 134 137 139 145 145 144 143 143 139 138 129 118 111 100 101 88 43 31 21 352 0 7 359 356 350 348 344 343 341
353 127 224 254 250 279 231 227 208 134 114 110 98 127 131 137 138 141 144 136 139 139 137 139 135 128 120 114 102 87 67 48 37 2 4 12 5 357 349 348 337 332 327 328
182 204 199 238 1 275 172 204 168 160 152 154 141 128 136 142 138 140 133 134 136 138 133 130 127 124 119 116 112 97 84 61 38 26 14 6 355 348 342 335 326 322 319 323